Location: Newark
(49.8348°N, 24.0280°E)
Time: 11:20:53
(UTC+00:00)

Explorer 7 - Pass Details

Date: 20 January 2020
Orbit: 485 x 679 km, 50.3° (Epoch: 25 February)

Event Time Altitude Azimuth Distance (km) Brightness Sun altitude
Rises 22:15:00 0° 206° (SSW) 2,541 - -60.0°
Reaches altitude 10° 22:17:37 10° 187° (S) 1,660 - -60.0°
Maximum altitude 22:20:17 19° 141° (SE) 1,216 - -60.1°
Drops below altitude 10° 22:22:59 10° 95° (E) 1,680 - -60.2°
Sets 22:25:38 0° 77° (ENE) 2,584 - -60.2°
